Location: ????????
(55.7667°N, 37.4833°E)
Time: 07:00:51
(UTC+00:00)

Cosmos 2228 Rocket - Pass Details

Date: 19 May 2025
Orbit: 612 x 647 km, 82.5° (Epoch: 15 June)

Event Time Altitude Azimuth Distance (km) Brightness Sun altitude
Exits shadow 23:42:31 - 178° (S) 2,330 5.5 -9.0°
Reaches altitude 10° 23:43:13 10° 177° (S) 2,048 5.2 -8.9°
Maximum altitude 23:47:43 62° 97° (E) 733 3.6 -8.6°
Drops below altitude 10° 23:52:13 10° 17° (NNE) 2,057 7.2 -8.2°
Sets 23:54:30 0° 15° (NNE) 2,968 8.1 -8.0°
